User: anonymous   Login
Location: Unspecified
(0.0000°N, 0.0000°E)
Time: 14:53:49
(UTC+00:00)
Language:

AAUSAT CUBESAT 2 - Orbit

View from above orbital plane
View from above orbital plane
View from above satellite
View from above satellite

Ground track
Ground track

The orbit data is extracted from the following two-line orbital elements,

1 32788U 08021F   18287.60716273 +.00000911 +00000-0 +89402-4 0  9995
2 32788 097.5149 309.1001 0010603 313.4992 046.5347 14.94477736567919
Epoch (UTC): 14 October 2018 14:34:18
Eccentricity: 0.0010603
inclination: 97.5149°
perigee height: 576 km
apogee height: 591 km
right ascension of ascending node: 309.1001°
argument of perigee: 313.4992°
revolutions per day: 14.94477736
mean anomaly at epoch: 46.5347°
orbit number at epoch: 56791

The dashed part of the orbit path shows where the satellite is in the earth's shadow,  

DLR